DW6794 Weather Reports


Display with metric or nautical units.
time (UTC)temp
F
wind
direction
speed
MPH
gust
MPH
rain 1hr
in
rain 24hr
in
rain mn
in
humidity
%
barometer
mb
20160208184358 47 237 7.0 14.0 0.00 0.00 0.00 52 1001.7
20160208183359 47 229 9.0 13.0 0.00 0.00 0.00 53 1001.8
20160208182359 46 265 8.0 15.0 0.00 0.00 0.00 54 1002.0
20160208181359 46 252 9.0 17.0 0.00 0.00 0.00 54 1002.2
20160208180359 46 244 7.0 12.0 0.00 0.00 0.00 58 1002.5
20160208175359 45 239 6.0 14.0 0.00 0.00 0.00 61 1002.7
20160208173358 44 242 9.0 12.0 0.00 0.00 0.00 62 1003.3
20160208172359 44 263 5.0 13.0 0.00 0.00 0.00 65 1003.6
20160208171400 43 230 7.0 14.0 0.00 0.00 0.00 66 1003.9
20160208170359 42 264 5.0 12.0 0.00 0.00 0.00 68 1004.4
20160208165359 42 238 5.0 12.0 0.00 0.00 0.00 68 1004.4
20160208164359 41 199 3.0 10.0 0.00 0.00 0.00 70 1004.7
20160208163359 41 198 6.0 12.0 0.00 0.00 0.00 69 1004.9
20160208162359 41 191 6.0 10.0 0.00 0.00 0.00 70 1005.0
20160208161359 41 199 7.0 10.0 0.00 0.00 0.00 71 1005.4
20160208160359 40 226 5.0 10.0 0.00 0.00 0.00 71 1005.6
20160208155359 40 233 8.0 20.0 0.00 0.00 0.00 70 1005.7
20160208154359 41 250 5.0 13.0 0.00 0.00 0.00 71 1006.0
20160208153359 40 241 5.0 14.0 0.00 0.00 0.00 70 1006.0
20160208152400 40 254 7.0 18.0 0.00 0.00 0.00 71 1006.1
20160208151359 41 248 12.0 20.0 0.00 0.00 0.00 71 1006.1
20160208150359 40 237 6.0 14.0 0.00 0.00 0.00 69 1005.9
20160208145400 40 250 4.0 9.0 0.00 0.00 0.00 69 1005.6
20160208144359 40 229 4.0 12.0 0.00 0.00 0.00 70 1005.6
20160208142400 38 254 3.0 5.0 0.00 0.00 0.00 72 1005.6
20160208140359 37 259 1.0 6.0 0.00 0.00 0.00 73 1005.5
20160208135359 36 250 2.0 5.0 0.00 0.00 0.00 74 1005.4
20160208134400 34 265 3.0 8.0 0.00 0.00 0.00 74 1005.3
20160208133400 32 265 0.0 3.0 0.00 0.00 0.00 76 1005.6
20160208132400 29 265 2.0 5.0 0.00 0.00 0.00 77 1005.9
20160208131400 28 252 0.0 0.0 0.00 0.00 0.00 76 1005.8
20160208125400 27 252 0.0 0.0 0.00 0.00 0.00 75 1006.0
20160208124359 26 252 0.0 0.0 0.00 0.00 0.00 75 1005.8
20160208123359 26 252 0.0 0.0 0.00 0.00 0.00 74 1006.2
20160208122400 25 252 0.0 0.0 0.00 0.00 0.00 73 1006.3
20160208121359 25 252 0.0 0.0 0.00 0.00 0.00 73 1006.4
20160208120400 25 252 0.0 0.0 0.00 0.00 0.00 73 1006.3
20160208115400 24 252 0.0 0.0 0.00 0.00 0.00 73 1006.3
20160208114400 24 252 0.0 0.0 0.00 0.00 0.00 74 1006.3
20160208113359 24 252 0.0 0.0 0.00 0.00 0.00 74 1006.0
20160208112400 23 252 0.0 0.0 0.00 0.00 0.00 74 1005.8
20160208111400 23 248 0.0 0.0 0.00 0.00 0.00 74 1005.4
20160208110400 23 248 0.0 0.0 0.00 0.00 0.00 73 1006.4
20160208105400 23 248 0.0 0.0 0.00 0.00 0.00 71 1006.9
20160208104400 23 248 0.0 0.0 0.00 0.00 0.00 71 1007.1
20160208103400 23 248 0.0 0.0 0.00 0.00 0.00 70 1007.5
20160208102400 23 248 0.0 0.0 0.00 0.00 0.00 71 1007.5
20160208101400 23 248 0.0 0.0 0.00 0.00 0.00 70 1007.5
20160208100400 23 248 0.0 0.0 0.00 0.00 0.00 69 1007.7
20160208095401 23 248 0.0 0.0 0.00 0.00 0.00 69 1007.8
20160208093400 24 248 0.0 0.0 0.00 0.00 0.00 70 1007.8
20160208092401 24 248 0.0 0.0 0.00 0.00 0.00 69 1008.0
20160208091400 24 248 0.0 0.0 0.00 0.00 0.00 69 1008.1
20160208090400 24 248 0.0 0.0 0.00 0.00 0.00 69 1008.1
20160208084400 25 248 0.0 0.0 0.00 0.00 0.00 69 1008.4
20160208083400 26 248 0.0 0.0 0.00 0.00 0.00 69 1008.5
20160208082401 26 248 0.0 0.0 0.00 0.00 0.00 69 1008.6
20160208081400 26 248 0.0 0.0 0.00 0.00 0.00 69 1008.8
20160208080401 26 248 0.0 0.0 0.00 0.00 0.00 69 1008.9
20160208075400 27 248 0.0 0.0 0.00 0.00 0.00 69 1009.1
20160208073401 27 248 0.0 0.0 0.00 0.00 0.00 69 1009.5
20160208072400 27 248 0.0 0.0 0.00 0.00 0.00 69 1009.7
20160208071401 27 248 0.0 0.0 0.00 0.00 0.00 69 1009.9
20160208070401 26 248 0.0 0.0 0.00 0.00 0.00 69 1010.0
20160208065401 26 248 0.0 0.0 0.00 0.00 0.00 70 1010.2
20160208063401 25 248 0.0 0.0 0.00 0.00 0.00 68 1010.4
20160208062401 25 248 0.0 0.0 0.00 0.00 0.00 69 1010.7
20160208060401 24 248 0.0 0.0 0.00 0.00 0.00 67 1011.1
20160208055401 24 248 0.0 0.0 0.00 0.00 0.00 66 1011.1
20160208054401 24 248 0.0 0.0 0.00 0.00 0.00 65 1011.3
20160208053401 24 248 0.0 0.0 0.00 0.00 0.00 66 1011.4
20160208052401 24 248 0.0 0.0 0.00 0.00 0.00 66 1011.6
20160208051401 24 248 0.0 0.0 0.00 0.00 0.00 65 1011.6
20160208050401 24 248 0.0 0.0 0.00 0.00 0.00 64 1011.8
20160208045401 24 248 0.0 0.0 0.00 0.00 0.00 64 1011.9
20160208043402 25 248 0.0 0.0 0.00 0.00 0.00 63 1011.9
20160208040401 26 248 0.0 0.0 0.00 0.00 0.00 62 1012.2
20160208035401 26 248 0.0 0.0 0.00 0.00 0.00 62 1012.2
20160208034401 26 248 0.0 0.0 0.00 0.00 0.00 62 1012.2
20160208033401 26 248 0.0 0.0 0.00 0.00 0.00 62 1012.2
20160208032401 27 248 0.0 0.0 0.00 0.00 0.00 62 1012.3
20160208030401 27 248 0.0 0.0 0.00 0.00 0.00 61 1012.5
20160208025401 28 248 0.0 0.0 0.00 0.00 0.00 61 1012.5
20160208023402 28 248 0.0 0.0 0.00 0.00 0.00 59 1012.5
20160208022402 28 248 0.0 0.0 0.00 0.00 0.00 60 1012.6
20160208021402 28 248 0.0 0.0 0.00 0.00 0.00 59 1012.7
20160208015402 29 248 0.0 0.0 0.00 0.00 0.00 59 1012.8
20160208014401 29 248 0.0 0.0 0.00 0.00 0.00 59 1012.9
20160208013402 29 248 0.0 0.0 0.00 0.00 0.00 57 1013.0
20160208012402 30 248 0.0 0.0 0.00 0.00 0.00 57 1013.0
20160208011401 30 248 0.0 0.0 0.00 0.00 0.00 58 1013.0
20160208010402 31 248 0.0 0.0 0.00 0.00 0.00 58 1013.0
20160208005402 31 248 0.0 0.0 0.00 0.00 0.00 56 1013.1
20160208004402 32 248 0.0 0.0 0.00 0.00 0.00 56 1013.3
20160208003401 32 248 0.0 0.0 0.00 0.00 0.00 55 1013.1
20160208001402 34 248 0.0 0.0 0.00 0.00 0.00 54 1013.5
20160208000401 36 248 0.0 0.0 0.00 0.00 0.00 53 1013.5
20160207235402 37 248 0.0 0.0 0.00 0.00 0.00 51 1013.4
20160207233402 41 248 0.0 0.0 0.00 0.00 0.00 50 1013.2
20160207232402 42 248 0.0 0.0 0.00 0.00 0.00 49 1013.1
20160207231402 44 248 0.0 0.0 0.00 0.00 0.00 49 1013.3
20160207230402 46 248 0.0 0.0 0.00 0.00 0.00 47 1013.3
20160207225402 47 248 0.0 2.0 0.00 0.00 0.00 46 1013.3
20160207223402 48 251 2.0 3.0 0.00 0.00 0.00 45 1013.3
20160207222402 49 251 2.0 5.0 0.00 0.00 0.00 44 1013.5
20160207221403 49 250 3.0 7.0 0.00 0.00 0.00 44 1013.5
20160207220402 50 256 4.0 7.0 0.00 0.00 0.00 44 1013.4
20160207215403 50 257 1.0 6.0 0.00 0.00 0.00 44 1013.5
20160207214402 50 251 3.0 7.0 0.00 0.00 0.00 44 1013.5
20160207213402 50 259 3.0 7.0 0.00 0.00 0.00 44 1013.5
20160207212402 50 227 0.0 7.0 0.00 0.00 0.00 46 1013.5
20160207211402 50 240 1.0 6.0 0.00 0.00 0.00 46 1013.6
20160207205402 50 239 0.0 6.0 0.00 0.00 0.00 46 1013.8
20160207204403 50 233 3.0 6.0 0.00 0.00 0.00 46 1014.0
20160207203402 50 277 0.0 6.0 0.00 0.00 0.00 48 1014.1
20160207202403 49 187 0.0 5.0 0.00 0.00 0.00 48 1014.2
20160207201402 49 144 1.0 7.0 0.00 0.00 0.00 48 1014.4
20160207200404 49 194 2.0 8.0 0.00 0.00 0.00 48 1014.6
20160207195402 49 312 3.0 7.0 0.00 0.00 0.00 48 1014.8
20160207193403 48 221 1.0 7.0 0.00 0.00 0.00 50 1015.3
20160207192403 48 217 0.0 3.0 0.00 0.00 0.00 50 1015.6
20160207191402 48 244 0.0 5.0 0.00 0.00 0.00 51 1016.2
20160207190402 48 238 5.0 8.0 0.00 0.00 0.00 51 1016.6
20160207185402 48 161 0.0 6.0 0.00 0.00 0.00 53 1016.9